[[{"header":{"parameterUnit":"m.s-1","parameterCategory":1,"la1":30.2991,"la2":30.254,"lo1":-89.0895,"lo2":-89.0444,"dy":0.0017,"dx":0.0017,"nx":28,"ny":28,"refTime":"2025-08-01T21:00:00:Z","depth":0,"parameterNumber":2,"parameterNumberName":"U-component_of_WINDS"},"data":[0,0,0,0,0,0,0,0,0,0,0,0,0,0,0,0,0,0,0,0,0,0,0,0,0,0,0,0,0,0,0,0,0,0,0,0,0,0,0,0,0,0,0,0,0,0,0,0,0,0,0,0,0,0,0,0,0,0,-0.7779,-0.7779,0,-0.7783,-0.7783,-0.7783,-0.7781,-0.7781,-0.7781,-0.7781,-0.7786,-0.7786,-0.7787,0,0,0,0,0,0,0,0,0,0,0,0,0,-0.777,-0.777,-0.7778,-0.7779,-0.7779,-0.7783,-0.7783,-0.7783,-0.7781,-0.7781,-0.7781,-0.7781,-0.7786,-0.7786,-0.7787,0,0,0,0,0,0,0,0,0,0,0,0,0,-0.7774,-0.777,-0.7778,-0.7778,-0.7778,-0.7783,-0.7783,-0.7783,-0.7781,-0.7781,-0.7781,-0.7781,-0.7786,-0.7786,-0.7787,-0.7793,0,0,-0.7788,-0.7788,0,0,0,0,0,0,0,0,-0.7774,-0.7774,-0.7778,-0.7778,-0.7778,-0.7781,-0.7782,-0.7786,-0.7781,-0.778,-0.7781,-0.778,-0.7785,-0.7785,-0.7786,-0.7793,-0.7793,-0.7788,-0.7788,-0.7788,-0.7788,0,0,0,0,0,0,0,-0.7774,-0.7774,-0.778,-0.7778,-0.7778,-0.7778,-0.7779,-0.7783,-0.7783,-0.778,-0.778,-0.778,-0.7785,-0.7786,-0.7787,-0.7793,-0.7788,-0.7788,-0.7789,-0.7789,-0.7807,-0.7807,0,0,0,0,0,0,-0.7773,-0.7774,-0.778,-0.778,-0.7775,-0.7779,-0.7779,-0.778,-0.7783,-0.7783,-0.7781,-0.778,-0.7786,-0.7786,-0.7787,-0.7795,-0.7788,-0.7789,-0.7789,-0.7807,-0.7807,-0.7807,0,0,0,0,0,0,-0.7773,-0.7774,-0.778,-0.7777,-0.7778,-0.7779,-0.7781,-0.7781,-0.7782,-0.7784,-0.7784,-0.7782,-0.7785,-0.7786,-0.7792,-0.7795,-0.7789,-0.7789,-0.7807,-0.7807,-0.7807,-0.7811,0,0,0,0,0,0,-0.7773,-0.7774,-0.7775,-0.7777,-0.7778,-0.7784,-0.7781,-0.7781,-0.7783,-0.7782,-0.7785,-0.7785,-0.7785,-0.7791,-0.7792,-0.7796,-0.779,-0.7806,-0.7807,-0.7807,-0.7811,-0.7812,-0.7813,0,0,0,0,0,-0.7772,-0.7776,-0.7775,-0.7776,-0.778,-0.7784,-0.7785,-0.7785,-0.7783,-0.7785,-0.7786,-0.7785,-0.7795,-0.7792,-0.7793,-0.7797,-0.7806,-0.7807,-0.7807,-0.781,-0.7812,-0.7813,0,0,0,0,0,0,-0.7774,-0.7776,-0.7775,-0.778,-0.7782,-0.7784,-0.7786,-0.7786,-0.7789,-0.7788,-0.7789,-0.7789,-0.7795,-0.7796,-0.7793,-0.7804,-0.78,-0.7801,-0.7802,-0.7803,-0.7804,-0.7804,-0.779,0,0,0,0,0,-0.7775,-0.7778,-0.7779,-0.7783,-0.7784,-0.7785,-0.7787,-0.7787,-0.7789,-0.779,-0.7792,-0.7795,-0.7799,-0.7801,-0.7805,-0.7811,-0.7813,-0.7815,-0.7815,-0.7816,-0.7817,-0.7822,-0.7823,-0.7809,-0.7809,-0.7809,0,0,-0.7777,-0.7778,-0.778,-0.7783,-0.7785,-0.7789,-0.7786,-0.7789,-0.7793,-0.7791,-0.7796,-0.7798,-0.7801,-0.7808,-0.7811,-0.7809,-0.7821,-0.7817,-0.7817,-0.7818,-0.7823,-0.7824,-0.7825,-0.781,-0.781,-0.781,0,0,-0.7782,-0.7783,-0.7787,-0.7789,-0.7792,-0.7792,-0.7794,-0.7796,-0.7797,-0.7803,-0.7802,-0.7806,-0.7812,-0.7815,-0.7817,-0.7826,-0.7825,-0.7827,-0.7832,-0.7837,-0.7838,-0.7839,-0.7843,-0.7844,-0.7828,-0.7828,-0.7828,0,-0.7784,-0.7788,-0.7789,-0.7793,-0.7795,-0.7794,-0.7799,-0.7801,-0.7805,-0.7807,-0.7805,-0.7814,-0.7816,-0.7824,-0.7826,-0.7828,-0.783,-0.7827,-0.7838,-0.7839,-0.7839,-0.7843,-0.7845,-0.7828,-0.7828,-0.7828,-0.7828,0,-0.7791,-0.7795,-0.7798,-0.7802,-0.7805,-0.7809,-0.7811,-0.7813,-0.7814,-0.7815,-0.7822,-0.7825,-0.783,-0.7831,-0.7831,-0.784,-0.7839,-0.7837,-0.7834,-0.7841,-0.7845,-0.7846,-0.7829,-0.7828,-0.7828,-0.7828,0,0,-0.7796,-0.7802,-0.7803,-0.7806,-0.781,-0.7813,-0.7818,-0.7823,-0.7826,-0.7829,-0.7834,-0.784,-0.7839,-0.7842,-0.7843,-0.7847,-0.7855,-0.7845,-0.7845,-0.7848,-0.7866,-0.7868,-0.7869,-0.7855,-0.7855,-0.7855,-0.7866,0,-0.7802,-0.781,-0.7812,-0.7819,-0.7824,-0.7824,-0.7829,-0.7832,-0.7834,-0.7839,-0.7841,-0.7846,-0.7844,-0.7846,-0.785,-0.7853,-0.7859,-0.7852,-0.786,-0.7861,-0.786,-0.7871,-0.7872,-0.7882,-0.7868,-0.7868,-0.7868,0,-0.781,-0.7814,-0.7822,-0.7827,-0.7829,-0.7833,-0.7839,-0.7843,-0.7847,-0.7849,-0.7853,-0.7853,-0.786,-0.7857,-0.7866,-0.7862,-0.7865,-0.7868,-0.7868,-0.7869,-0.7865,-0.7873,-0.7885,-0.7887,-0.787,-0.787,-0.787,0,-0.7814,-0.7821,-0.7828,-0.783,-0.7836,-0.7839,-0.7841,-0.7846,-0.7849,-0.7855,-0.7857,-0.7863,-0.7866,-0.7871,-0.7874,-0.7871,-0.7884,-0.788,-0.7886,-0.7886,-0.7889,-0.7888,-0.7902,-0.789,-0.789,-0.789,-0.789,0,-0.782,-0.7825,-0.783,-0.7833,-0.784,-0.7842,-0.7849,-0.7851,-0.7856,-0.7861,-0.7862,-0.7867,-0.787,-0.7876,-0.7878,-0.7887,-0.7888,-0.789,-0.7891,-0.789,-0.789,-0.7892,-0.7892,-0.7891,-0.7891,-0.789,-0.789,0,-0.7825,-0.7828,-0.7835,-0.7841,-0.7842,-0.7847,-0.7852,-0.7857,-0.7859,-0.7866,-0.7868,-0.7873,-0.788,-0.7883,-0.7892,-0.7893,-0.7903,-0.7903,-0.7902,-0.7902,-0.7908,-0.7907,-0.7924,-0.7926,-0.7912,-0.7912,-0.7913,0,-0.7829,-0.7833,-0.784,-0.7843,-0.7846,-0.7852,-0.7856,-0.7859,-0.7863,-0.787,-0.7874,-0.7881,-0.7887,-0.7899,-0.7903,-0.7911,-0.7911,-0.7916,-0.7912,-0.7912,-0.7912,-0.7912,-0.7913,-0.7917,-0.7917,-0.7917,-0.7917,0,-0.7836,-0.7838,-0.7843,-0.785,-0.7855,-0.786,-0.7865,-0.7868,-0.7872,-0.7877,-0.7884,-0.7889,-0.7899,-0.7906,-0.7914,-0.7918,-0.7919,-0.7919,-0.7921,-0.792,-0.7919,-0.7921,-0.7904,-0.7918,-0.7918,-0.7918,-0.7918,-0.7918,-0.7841,-0.7846,-0.7851,-0.7858,-0.7862,-0.7868,-0.7873,-0.7877,-0.7883,-0.7891,-0.7892,-0.7901,-0.7908,-0.7918,-0.7922,-0.793,-0.7928,-0.7931,-0.7932,-0.7932,-0.7933,-0.7918,-0.7931,-0.7931,-0.7931,-0.7931,-0.7931,0,-0.7849,-0.7853,-0.7859,-0.7867,-0.7872,-0.7873,-0.7879,-0.7884,-0.7891,-0.7897,-0.7904,-0.7913,-0.7921,-0.7927,-0.7936,-0.794,-0.7941,-0.7943,-0.7942,-0.7944,-0.7933,-0.7931,-0.7942,-0.7942,-0.7942,-0.7942,-0.7942,-0.7942,-0.7854,-0.7862,-0.7864,-0.7875,-0.7879,-0.7888,-0.7891,-0.7897,-0.7902,-0.7913,-0.7919,-0.7923,-0.793,-0.7939,-0.7947,-0.7949,-0.7952,-0.7954,-0.7955,-0.7945,-0.7944,-0.7943,-0.7941,-0.7954,-0.7954,-0.7965,-0.7965,-0.7965]},{"header":{"parameterUnit":"m.s-1","parameterCategory":1,"la1":30.2991,"la2":30.254,"lo1":-89.0895,"lo2":-89.0444,"dy":0.0017,"dx":0.0017,"nx":28,"ny":28,"refTime":"2025-08-01T21:00:00:Z","depth":0,"parameterNumber":3,"parameterNumberName":"V-component_of_WINDS"},"data":[0,0,0,0,0,0,0,0,0,0,0,0,0,0,0,0,0,0,0,0,0,0,0,0,0,0,0,0,0,0,0,0,0,0,0,0,0,0,0,0,0,0,0,0,0,0,0,0,0,0,0,0,0,0,0,0,0,0,0.264,0.264,0,0.2599,0.2598,0.2598,0.2586,0.2587,0.2587,0.2587,0.2543,0.2542,0.2541,0,0,0,0,0,0,0,0,0,0,0,0,0,0.2706,0.2705,0.264,0.264,0.2639,0.2599,0.2598,0.2598,0.2586,0.2587,0.2587,0.2587,0.2544,0.2542,0.2541,0,0,0,0,0,0,0,0,0,0,0,0,0,0.2672,0.2704,0.264,0.2629,0.2627,0.2599,0.2598,0.2598,0.2586,0.2587,0.2587,0.2587,0.2544,0.2542,0.254,0.2521,0,0,0.2534,0.2533,0,0,0,0,0,0,0,0,0.2674,0.267,0.2631,0.2629,0.2628,0.2598,0.2606,0.2572,0.2586,0.2602,0.2587,0.2588,0.2561,0.2558,0.2549,0.2518,0.2517,0.2534,0.2533,0.2532,0.2531,0,0,0,0,0,0,0,0.2677,0.2672,0.2624,0.263,0.2628,0.2624,0.262,0.2599,0.258,0.26,0.2599,0.2595,0.256,0.2551,0.2548,0.2516,0.2534,0.2532,0.2531,0.253,0.2464,0.2464,0,0,0,0,0,0,0.2681,0.2674,0.2625,0.2622,0.2652,0.2623,0.2618,0.2607,0.258,0.2576,0.2595,0.2594,0.2555,0.2551,0.2547,0.252,0.2532,0.253,0.2529,0.2465,0.2464,0.2464,0,0,0,0,0,0,0.2683,0.2677,0.2627,0.2648,0.2641,0.2621,0.2609,0.2606,0.2597,0.2576,0.2572,0.2589,0.2555,0.2549,0.2527,0.2518,0.2529,0.2527,0.2465,0.2465,0.2464,0.2468,0,0,0,0,0,0,0.2685,0.2678,0.2671,0.2648,0.264,0.2608,0.2609,0.2605,0.2594,0.2593,0.257,0.2566,0.2555,0.253,0.2525,0.2516,0.2525,0.2466,0.2465,0.2464,0.2468,0.2467,0.2466,0,0,0,0,0,0.2687,0.2674,0.267,0.2665,0.2631,0.2608,0.2603,0.2591,0.2593,0.2585,0.2571,0.2567,0.252,0.2528,0.2522,0.2512,0.2466,0.2465,0.2464,0.2469,0.2468,0.2466,0,0,0,0,0,0,0.2696,0.267,0.2667,0.2646,0.2629,0.2606,0.2596,0.2591,0.2573,0.2573,0.2558,0.2553,0.2531,0.2519,0.2528,0.249,0.2493,0.2491,0.2499,0.2497,0.2496,0.2499,0.2524,0,0,0,0,0,0.2696,0.268,0.2658,0.2641,0.2633,0.2616,0.2606,0.2597,0.258,0.2572,0.2557,0.2539,0.252,0.2508,0.249,0.2467,0.246,0.2457,0.2456,0.2455,0.2453,0.2438,0.2436,0.246,0.246,0.246,0,0,0.2695,0.2679,0.267,0.2643,0.2629,0.2612,0.261,0.2593,0.2579,0.257,0.2547,0.2535,0.2513,0.249,0.2479,0.248,0.2445,0.2454,0.2453,0.2452,0.2437,0.2434,0.2432,0.2459,0.2459,0.2459,0,0,0.2684,0.2671,0.2655,0.2641,0.262,0.2608,0.2604,0.2581,0.2573,0.255,0.2542,0.2525,0.2494,0.2478,0.2466,0.2448,0.2442,0.2442,0.2437,0.2422,0.242,0.2418,0.241,0.2408,0.244,0.244,0.244,0,0.2685,0.266,0.2647,0.2629,0.2617,0.2607,0.259,0.2577,0.2551,0.2542,0.2543,0.2502,0.2487,0.2459,0.2454,0.2445,0.2439,0.2445,0.2422,0.242,0.2418,0.241,0.2407,0.244,0.244,0.244,0.244,0,0.2661,0.2644,0.2633,0.2608,0.2594,0.2577,0.2561,0.2548,0.2541,0.2528,0.2504,0.2486,0.2462,0.2455,0.2448,0.2425,0.2426,0.2425,0.2427,0.2416,0.2408,0.2405,0.244,0.244,0.244,0.244,0,0,0.2656,0.2623,0.2619,0.2607,0.2582,0.2568,0.2549,0.2526,0.2515,0.2497,0.248,0.2453,0.2451,0.2437,0.2428,0.2415,0.2399,0.2415,0.2414,0.2412,0.2371,0.2372,0.2368,0.2395,0.2395,0.2394,0.2372,0,0.2642,0.2609,0.2596,0.2568,0.2551,0.254,0.2523,0.2505,0.2493,0.2475,0.2461,0.2441,0.2441,0.2433,0.242,0.2404,0.2391,0.2406,0.2378,0.2377,0.2383,0.2365,0.2366,0.2346,0.2369,0.2369,0.2368,0,0.2621,0.2602,0.2573,0.2548,0.254,0.2526,0.2503,0.2486,0.2465,0.2457,0.2441,0.2432,0.241,0.2414,0.2383,0.2393,0.2381,0.2372,0.237,0.2367,0.2372,0.2359,0.2339,0.2336,0.2364,0.2364,0.2364,0,0.2618,0.2586,0.2564,0.2553,0.2525,0.2514,0.2502,0.2481,0.2467,0.2447,0.2438,0.2415,0.2403,0.2385,0.2369,0.2374,0.2339,0.2342,0.233,0.2331,0.2323,0.2324,0.23,0.2317,0.2317,0.2317,0.2317,0,0.2603,0.2585,0.2562,0.2548,0.2527,0.2512,0.2491,0.2477,0.2459,0.2441,0.243,0.2414,0.2395,0.2375,0.2363,0.2338,0.2333,0.2324,0.2321,0.2325,0.2326,0.2316,0.2317,0.2316,0.2316,0.2317,0.2317,0,0.2597,0.2581,0.2556,0.253,0.2523,0.2509,0.2486,0.2471,0.2458,0.2435,0.2429,0.2408,0.2384,0.2367,0.2336,0.2328,0.2301,0.2298,0.2308,0.2306,0.2295,0.2296,0.2263,0.2258,0.228,0.2279,0.2279,0,0.2589,0.2575,0.2547,0.2534,0.2522,0.2502,0.2488,0.2471,0.2457,0.243,0.2418,0.2394,0.2374,0.2336,0.2317,0.2293,0.2289,0.2279,0.2285,0.2289,0.2287,0.2288,0.2285,0.2278,0.2278,0.2278,0.2278,0,0.2574,0.2566,0.2547,0.2524,0.2507,0.2488,0.2469,0.2459,0.2439,0.2423,0.2398,0.2382,0.235,0.2326,0.2299,0.2285,0.2277,0.2276,0.2272,0.2275,0.2281,0.2276,0.2305,0.2277,0.2277,0.2277,0.2277,0.2277,0.2566,0.2552,0.253,0.2508,0.2491,0.2473,0.2457,0.2441,0.2421,0.2394,0.2385,0.2359,0.2336,0.23,0.2285,0.2264,0.2264,0.2258,0.2257,0.2255,0.2255,0.2285,0.2259,0.2259,0.2259,0.2259,0.2259,0,0.255,0.2535,0.2515,0.2487,0.2469,0.2464,0.2441,0.2427,0.2404,0.2383,0.2363,0.2334,0.2309,0.2287,0.2261,0.2248,0.2244,0.2242,0.2242,0.2239,0.2257,0.2262,0.2246,0.2246,0.2246,0.2246,0.2246,0.2246,0.254,0.2515,0.2504,0.2471,0.2456,0.243,0.2418,0.24,0.2383,0.2351,0.2331,0.2317,0.2295,0.2267,0.2243,0.2237,0.2228,0.2226,0.2219,0.2236,0.2238,0.2239,0.2245,0.2224,0.2224,0.2203,0.2203,0.2203]}]]